Location: Azul
(36.7830°S, 59.8500°W)
Time: 05:21:47
(UTC-03:00)

METEOR M2 - Visible Passes

Search period start: 16 September 2024 00:00
Search period end: 26 September 2024 00:00
Orbit: 817 x 827 km, 98.4° (Epoch: 15 September)

Date Brightness Start Highest point End Pass type
(mag) Time Alt. Az. Time Alt. Az. Time Alt. Az.
16 Sep ? 04:47:08 10° NE 04:52:04 37° ESE 04:57:03 10° S visible
16 Sep ? 06:27:52 10° NNW 06:32:14 25° W 06:36:40 10° SW visible
17 Sep ? 04:27:38 10° ENE 04:31:57 25° ESE 04:36:18 10° SSE visible
17 Sep ? 06:06:50 10° NNW 06:11:50 39° W 06:16:54 10° SSW visible
18 Sep ? 04:08:36 10° ENE 04:11:55 17° ESE 04:15:14 10° SSE visible
18 Sep ? 05:46:10 10° N 05:51:29 61° W 05:56:53 10° SSW visible
18 Sep ? 19:48:07 10° SSW 19:50:57 14° WSW 19:53:46 10° W visible
19 Sep ? 03:50:47 10° ESE 03:51:56 11° ESE 03:53:04 10° SE visible
19 Sep ? 05:25:47 10° NNE 05:31:12 87° ESE 05:36:40 10° SSW visible
19 Sep ? 19:26:51 10° SSW 19:30:55 22° WSW 19:34:57 10° WNW visible
20 Sep ? 05:05:41 10° NNE 05:10:58 57° ESE 05:16:18 10° S visible
21 Sep ? 04:45:52 10° NE 04:50:47 37° ESE 04:55:45 10° S visible
22 Sep ? 04:26:23 10° ENE 04:30:40 25° ESE 04:35:00 10° SSE visible
22 Sep ? 06:05:31 10° NNW 06:10:32 39° W 06:15:38 10° SSW visible
23 Sep ? 04:07:21 10° E 04:10:37 16° ESE 04:13:53 10° SSE visible
23 Sep ? 05:44:51 10° N 05:50:10 62° W 05:55:35 10° SSW visible
23 Sep ? 19:46:47 10° SSW 19:49:39 15° WSW 19:52:31 10° W visible
24 Sep ? 03:49:40 10° ESE 03:50:37 10° ESE 03:51:35 10° SE visible
24 Sep ? 05:24:28 10° NNE 05:29:53 86° ESE 05:35:22 10° SSW visible
24 Sep ? 19:25:31 10° SSW 19:29:37 22° WSW 19:33:40 10° WNW visible
25 Sep ? 05:04:22 10° NNE 05:09:38 56° ESE 05:14:58 10° S visible
